TimeEDT,TemperatureF,Dew PointF,Humidity,Sea Level PressureIn,VisibilityMPH,Wind Direction,Wind SpeedMPH,Gust SpeedMPH,PrecipitationIn,Events,Conditions,WindDirDegrees,DateUTC
12:51 AM,73.0,64.9,76,30.11,10.0,NW,6.9,-,N/A,,Clear,310,2013-07-16 04:51:00
1:51 AM,70.0,64.9,84,30.10,10.0,NW,6.9,-,N/A,,Clear,320,2013-07-16 05:51:00
2:51 AM,70.0,64.0,81,30.10,10.0,NW,6.9,-,N/A,,Clear,320,2013-07-16 06:51:00
3:51 AM,69.1,63.0,81,30.10,10.0,NW,5.8,-,N/A,,Clear,320,2013-07-16 07:51:00
4:51 AM,69.1,63.0,81,30.10,10.0,NW,6.9,-,N/A,,Clear,320,2013-07-16 08:51:00
5:51 AM,70.0,64.0,81,30.12,10.0,NW,6.9,-,N/A,,Clear,320,2013-07-16 09:51:00
6:51 AM,73.9,66.0,76,30.12,10.0,NW,5.8,-,N/A,,Clear,320,2013-07-16 10:51:00
7:51 AM,80.1,68.0,67,30.13,10.0,NW,6.9,-,N/A,,Clear,320,2013-07-16 11:51:00
8:51 AM,82.0,68.0,62,30.13,10.0,NW,8.1,-,N/A,,Clear,310,2013-07-16 12:51:00
9:51 AM,84.9,69.1,59,30.13,10.0,NW,8.1,-,N/A,,Clear,310,2013-07-16 13:51:00
10:51 AM,88.0,69.1,53,30.13,10.0,Variable,4.6,-,N/A,,Clear,0,2013-07-16 14:51:00
11:51 AM,89.1,66.9,48,30.13,10.0,North,10.4,16.1,N/A,,Clear,350,2013-07-16 15:51:00
12:51 PM,91.0,66.0,44,30.12,10.0,NW,6.9,-,N/A,,Partly Cloudy,320,2013-07-16 16:51:00
1:51 PM,86.0,69.1,57,30.11,10.0,NNW,5.8,-,N/A,,Overcast,340,2013-07-16 17:51:00
2:51 PM,81.0,70.0,69,30.12,7.0,ENE,6.9,-,0.01,Rain,Light Rain,60,2013-07-16 18:51:00
3:51 PM,84.0,75.0,74,30.11,10.0,Calm,Calm,-,0.00,,Mostly Cloudy,0,2013-07-16 19:51:00
4:51 PM,90.0,68.0,48,30.10,10.0,NNW,9.2,-,N/A,,Partly Cloudy,330,2013-07-16 20:51:00
5:51 PM,84.0,70.0,63,30.11,10.0,Variable,3.5,-,N/A,,Overcast,0,2013-07-16 21:51:00
6:51 PM,84.0,71.1,65,30.12,10.0,Calm,Calm,-,N/A,,Clear,0,2013-07-16 22:51:00
7:51 PM,81.0,71.1,72,30.13,10.0,Calm,Calm,-,N/A,,Clear,0,2013-07-16 23:51:00
8:51 PM,77.0,70.0,79,30.14,10.0,Calm,Calm,-,N/A,,Clear,0,2013-07-17 00:51:00
9:51 PM,73.9,69.1,85,30.15,10.0,Calm,Calm,-,N/A,,Clear,0,2013-07-17 01:51:00
10:51 PM,73.9,69.1,85,30.15,10.0,Calm,Calm,-,N/A,,Clear,0,2013-07-17 02:51:00
11:51 PM,72.0,68.0,87,30.15,10.0,Calm,Calm,-,N/A,,Clear,0,2013-07-17 03:51:00